Theta_e
319 313 311 310 311 312 311 311 311 311 310 310 310 309 309 308 309 314 317 319 325 321 318 320 321 319 319 321 325 337 339 338 337 335 338 338 339 342 345 344 344 346 347 353 354 354 353 357 358 360 360 359 359 359 360 360 361 361 360 362 363 366 367 366 365 365 363 360 361 361 357 357 361 361 361 361 361 362 364 363 359 359 359 361 361 360
316 312 311 312 311 311 310 311 311 310 311 309 309 309 309 308 308 313 313 321 327 322 318 323 320 319 320 322 326 335 335 333 334 336 337 340 339 343 344 345 345 347 350 354 356 357 356 356 359 359 359 359 356 358 359 359 360 362 360 361 362 366 367 367 365 364 365 363 363 362 360 359 358 360 359 358 359 360 362 363 362 359 359 360 359 360
312 310 313 312 312 311 311 311 311 310 309 311 309 309 308 309 310 316 324 321 328 321 314 322 317 316 319 324 329 333 331 331 336 337 339 341 342 343 346 345 346 346 348 352 355 357 356 357 358 357 357 358 357 356 357 359 361 361 361 362 363 365 366 365 362 365 360 363 366 364 363 360 356 359 365 363 363 357 359 360 359 360 359 357 356 359
308 311 314 312 312 310 310 311 310 310 310 310 309 308 307 310 306 305 321 324 326 320 319 319 316 315 320 327 327 333 330 333 340 339 337 340 343 344 344 345 344 345 347 350 353 353 357 357 358 357 356 357 358 357 356 356 359 360 362 362 363 365 366 368 367 362 365 367 367 367 367 366 362 357 362 358 359 358 360 360 361 362 362 358 360 356
310 311 312 312 311 310 309 309 309 309 309 311 310 309 308 307 308 307 308 311 322 327 323 320 316 311 316 315 323 334 335 337 340 340 339 340 345 347 349 346 347 345 348 350 350 355 357 357 357 358 358 359 358 357 356 356 357 358 360 363 365 365 365 367 368 369 369 369 368 368 367 368 366 365 362 361 357 359 362 361 361 359 361 362 357 357
309 313 312 310 310 310 309 308 309 309 308 309 310 310 309 309 307 308 308 308 309 316 316 315 304 304 312 315 316 326 330 335 337 339 339 340 343 343 343 344 348 350 351 350 351 350 354 358 358 359 359 358 358 358 358 359 358 360 360 363 366 367 367 365 368 370 370 368 366 363 360 357 358 357 357 357 355 354 358 357 361 363 361 361 359 357
310 312 311 309 309 309 309 308 310 309 308 307 308 311 309 308 308 307 307 307 304 303 316 317 304 302 310 311 319 324 325 328 336 336 337 343 345 344 342 343 346 349 350 350 350 350 351 354 357 358 358 358 359 359 361 361 362 362 363 365 367 368 368 366 368 371 366 369 366 364 359 360 355 354 358 361 358 355 357 356 358 360 362 361 359 357
311 311 310 310 310 309 308 307 310 310 308 306 309 310 309 308 307 307 307 307 307 311 316 314 310 304 304 311 320 324 324 319 319 321 330 343 343 338 338 341 346 348 348 348 349 350 351 353 354 357 359 358 358 361 362 362 364 364 365 366 368 369 369 368 368 370 370 363 366 361 362 358 360 359 358 362 361 359 359 358 357 358 359 359 358 358
311 309 309 309 309 308 308 310 311 311 308 308 309 310 309 308 308 308 307 307 308 306 303 310 312 305 304 314 321 320 316 315 316 319 322 331 338 338 340 337 341 344 345 347 346 348 350 351 353 355 358 359 358 361 362 364 365 366 367 368 370 370 371 370 370 369 368 366 365 365 360 357 358 362 358 361 361 360 361 358 357 358 357 358 359 357
312 312 312 311 310 308 311 312 312 311 308 311 311 310 310 310 309 309 307 307 307 306 301 306 309 303 304 310 311 314 314 314 317 319 322 333 334 334 335 337 337 342 345 346 348 350 352 353 354 357 359 361 359 362 365 366 367 367 368 369 370 370 370 371 371 371 369 368 364 361 360 361 359 359 362 362 362 362 363 360 358 361 357 358 360 358
313 317 315 311 310 312 312 312 311 312 311 310 310 309 309 309 309 309 309 309 306 301 304 306 307 306 300 307 310 312 313 319 320 323 326 331 333 333 335 334 336 339 345 349 350 352 354 356 357 359 358 361 362 362 364 363 365 365 366 369 369 370 370 371 369 369 365 365 370 358 367 357 355 351 356 355 362 359 362 359 355 359 358 358 357 360
312 313 313 314 315 314 313 311 311 312 311 310 309 308 307 307 309 308 308 311 301 299 306 309 307 308 300 305 312 317 322 321 322 322 326 327 330 333 335 335 337 339 345 350 353 353 353 355 356 357 358 360 362 363 363 363 364 364 365 367 368 368 368 366 363 356 355 359 355 355 355 360 358 354 351 353 352 361 361 362 360 359 357 358 360 356
308 310 313 314 319 314 312 311 310 310 310 309 308 308 301 301 303 299 303 298 299 299 306 310 309 308 305 310 315 317 320 324 325 324 325 328 330 333 334 338 341 339 342 348 352 354 355 356 356 358 359 361 362 362 363 363 362 363 365 366 366 365 367 365 361 357 356 356 354 354 358 356 355 352 352 353 355 357 355 358 355 356 357 358 351 355
308 312 312 313 313 315 313 308 307 306 309 308 306 305 301 298 298 295 299 302 300 304 308 309 312 305 308 311 317 317 321 323 326 331 329 331 334 335 332 336 339 342 344 346 348 350 354 356 356 358 360 360 362 362 362 363 362 363 364 364 364 364 365 365 361 360 357 355 354 357 358 359 354 351 354 356 355 357 356 355 359 355 354 359 356 353
302 301 309 312 309 314 313 311 310 309 309 308 310 307 305 304 299 296 298 296 298 300 305 311 305 304 304 307 316 320 322 325 328 330 333 336 338 338 336 336 338 341 345 346 349 349 351 354 357 357 360 361 362 362 362 363 363 363 361 361 362 361 362 363 363 360 359 358 355 357 357 357 358 357 359 358 358 355 353 353 351 357 359 358 357 365
305 305 311 314 312 314 310 311 312 310 309 310 310 310 305 304 308 299 303 302 301 301 302 307 304 310 309 320 322 323 324 328 331 331 334 336 334 336 335 336 337 341 343 345 347 350 353 355 357 358 359 361 362 362 363 363 364 362 360 361 361 362 362 362 362 360 360 360 360 359 359 360 359 361 360 360 358 355 355 355 356 353 359 360 359 360
306 304 312 314 316 315 313 312 311 311 302 308 308 304 307 311 308 305 305 305 305 302 300 309 307 310 315 316 319 323 324 326 328 328 327 329 330 334 334 337 339 342 343 344 345 348 352 353 354 356 359 359 360 361 362 363 364 362 360 360 361 362 362 362 360 359 359 360 358 358 358 357 359 358 357 357 356 356 355 355 354 356 359 360 360 357
305 306 312 313 311 315 317 316 314 313 312 309 305 308 312 313 312 307 299 304 301 297 302 305 302 305 307 307 317 317 317 318 322 322 323 325 332 333 333 337 342 343 346 348 349 350 350 352 353 354 355 358 359 361 362 364 365 362 361 361 360 362 359 358 357 356 356 357 356 357 357 357 356 355 355 355 355 354 355 353 355 359 358 359 360 359
311 304 309 313 313 315 318 316 314 315 315 311 309 313 306 302 301 306 303 296 296 296 300 303 305 305 308 311 317 317 317 316 319 322 326 328 331 333 334 336 340 343 344 344 344 346 348 348 349 354 354 356 360 362 363 365 365 362 360 360 361 361 360 358 357 356 356 356 355 355 356 355 355 355 354 356 355 354 354 351 354 353 358 361 360 361
313 305 307 313 313 314 316 314 306 310 315 315 315 312 314 310 306 304 304 305 304 297 298 301 304 299 315 318 320 321 324 326 323 324 326 329 332 334 336 338 339 341 343 342 342 344 346 348 349 352 356 356 358 360 361 363 363 361 360 360 360 361 358 357 356 355 353 354 354 355 356 355 356 357 355 354 353 354 350 352 354 355 357 359 357 356
311 314 303 310 314 313 308 312 308 310 309 310 310 309 310 310 312 310 309 305 302 300 299 299 298 307 319 323 326 326 328 329 327 328 332 333 336 337 338 341 342 342 342 342 341 343 345 348 349 352 355 357 359 359 360 359 360 361 359 356 358 360 359 356 355 354 354 355 353 353 354 354 354 354 354 354 352 351 352 355 357 357 358 360 360 358
312 311 305 308 309 308 309 313 313 313 313 312 310 308 309 307 305 302 302 309 307 303 299 301 300 313 322 327 329 330 332 332 334 334 334 337 338 340 340 342 344 343 342 340 341 342 346 350 350 354 355 357 358 359 360 359 357 359 357 357 355 357 361 357 354 355 354 353 352 353 354 353 355 354 354 353 352 350 352 354 356 356 358 357 362 361
318 314 310 306 308 309 311 314 316 315 315 314 313 310 312 311 310 305 297 304 308 307 308 307 303 311 325 330 331 331 332 334 336 336 336 337 339 341 343 344 346 347 346 343 343 345 348 352 355 355 357 357 359 359 360 361 358 356 357 357 357 356 357 357 357 357 356 354 353 353 355 356 354 354 353 352 351 351 351 354 356 358 357 357 359 361
324 312 307 308 311 312 313 315 315 315 314 312 315 315 313 309 310 308 307 309 305 308 305 306 302 313 325 330 331 332 334 334 336 336 336 335 336 338 342 343 346 347 349 349 349 348 351 353 356 359 360 360 361 360 360 361 362 359 358 356 356 354 356 358 358 359 358 357 356 356 356 355 354 353 352 351 353 352 353 353 355 358 357 357 358 359
310 315 310 305 305 307 308 312 311 314 313 311 310 314 314 314 312 312 311 313 305 308 307 303 298 312 323 330 330 331 331 331 331 333 335 334 335 335 337 340 342 345 347 349 351 353 354 354 353 353 355 360 360 359 359 360 362 363 362 360 359 360 356 358 358 357 359 358 357 356 354 355 353 351 351 354 355 355 354 351 353 356 356 358 358 359
312 314 311 303 299 298 298 300 303 306 309 311 312 313 313 312 311 309 306 310 302 312 308 304 306 316 324 328 327 328 328 328 330 331 332 334 335 333 334 336 339 340 342 344 346 347 348 351 353 354 356 356 354 357 359 360 358 358 358 359 358 360 359 359 357 357 358 359 356 354 353 352 351 349 348 350 353 354 354 354 354 354 354 357 358 360
315 315 314 313 308 304 307 310 311 312 311 307 310 311 311 313 313 311 310 306 303 308 308 312 313 316 319 322 323 324 325 325 325 328 329 330 332 334 334 334 336 338 340 341 342 343 345 345 346 347 349 351 356 356 356 357 356 358 359 359 359 361 361 360 360 359 358 359 357 354 349 347 348 349 349 349 351 354 356 355 354 353 353 355 356 357
316 311 313 313 312 312 311 311 311 312 309 310 309 309 313 313 314 311 306 306 313 306 302 321 322 314 318 321 321 323 324 325 325 327 328 329 331 332 332 334 334 335 336 338 340 342 342 344 345 346 347 349 350 352 353 354 355 357 357 357 359 360 360 359 359 359 359 358 355 350 346 345 347 349 352 351 352 355 356 356 355 354 354 354 355 355
313 309 313 311 311 311 311 310 310 310 310 312 312 312 312 315 314 310 310 316 311 305 303 319 321 317 319 320 321 323 325 325 325 326 328 329 330 332 333 332 332 332 334 334 336 339 343 343 343 344 346 348 349 350 351 353 356 356 356 358 357 357 358 360 359 360 359 360 352 349 344 344 347 351 355 356 356 356 355 353 353 353 352 353 354 355
313 310 312 312 310 310 310 310 310 309 312 312 312 315 314 313 313 313 313 315 312 313 316 320 320 318 319 320 322 323 326 326 326 327 327 327 325 327 327 328 328 330 331 333 335 336 337 341 345 344 344 346 347 348 349 351 353 355 355 355 356 355 356 357 357 359 360 360 356 350 353 351 353 356 357 357 356 357 355 353 352 352 352 353 353 355
309 310 313 310 309 309 310 310 309 309 312 310 315 314 314 314 313 316 314 315 316 317 318 318 317 315 320 324 324 327 327 327 326 325 325 327 326 326 327 327 327 327 329 331 332 334 335 336 341 346 344 343 345 346 348 350 351 352 354 355 355 355 355 356 354 356 358 358 361 357 354 356 360 361 359 361 359 358 356 354 353 353 353 353 354 355
309 308 311 310 306 306 309 308 307 310 312 309 312 314 313 312 310 314 314 319 316 314 317 317 315 315 320 324 326 325 324 325 324 325 325 326 326 327 326 324 324 325 326 327 330 331 333 334 336 341 345 341 341 343 346 349 350 351 351 354 355 354 355 355 355 354 355 357 358 359 360 361 362 361 360 360 361 358 358 357 356 357 356 355 355 357
309 308 306 305 302 303 308 306 308 310 308 305 307 312 316 317 318 319 321 322 321 321 316 314 316 321 323 326 325 324 323 323 324 322 323 325 326 325 323 322 322 323 323 326 326 329 331 333 337 338 340 346 342 341 343 348 348 349 351 353 354 355 354 354 355 355 354 357 358 359 359 359 359 358 359 357 355 362 360 359 358 358 358 358 359 359
310 306 304 307 301 303 305 305 309 305 298 299 320 323 320 316 317 316 317 320 322 323 320 324 324 325 326 325 323 323 323 324 322 323 325 325 326 326 323 324 325 326 326 327 328 328 330 333 334 335 337 340 346 345 346 343 344 349 351 353 354 354 354 355 356 356 355 356 358 359 360 359 359 357 358 360 360 360 357 356 357 358 359 358 359 358
310 307 304 308 301 300 305 305 301 296 297 319 323 324 323 322 321 320 320 321 322 323 324 324 323 325 326 327 326 326 328 327 326 325 326 327 329 328 326 326 326 326 328 329 328 329 330 331 331 334 335 336 340 347 346 342 339 345 348 351 351 351 352 354 354 356 356 356 357 360 361 360 359 358 360 360 359 357 358 354 357 357 358 358 358 357
309 308 308 305 303 305 302 301 293 295 316 320 321 322 324 324 323 321 318 320 322 322 323 322 323 324 325 325 326 328 328 330 329 328 325 325 324 323 323 323 325 326 326 328 328 329 329 329 330 332 334 336 335 334 344 344 343 341 341 348 348 348 351 351 353 354 355 353 358 359 359 357 357 363 361 359 356 353 355 355 357 359 359 358 357 358
311 311 308 303 307 299 300 300 298 312 311 315 315 317 319 317 318 317 310 316 320 322 322 322 322 322 322 323 326 327 329 330 329 327 324 323 322 323 322 323 323 324 325 327 326 328 331 331 331 333 334 334 335 334 336 345 343 340 340 340 343 346 347 348 349 352 354 354 354 357 357 357 357 356 360 362 359 357 355 354 355 357 363 361 358 357
314 309 310 304 304 304 302 299 302 301 298 307 315 319 319 318 317 317 317 315 320 321 322 321 321 321 321 320 321 324 327 325 321 318 321 322 322 322 323 323 324 325 325 325 327 327 330 331 331 332 332 333 334 336 336 340 344 341 338 337 339 342 343 342 344 347 349 352 355 356 358 355 358 353 351 359 362 360 359 359 358 357 359 358 355 354
311 312 311 305 304 303 302 299 300 299 305 314 313 315 316 317 317 317 313 311 318 320 320 320 319 319 319 319 319 321 317 314 312 318 321 323 323 324 323 325 325 325 325 326 326 326 327 329 330 332 332 333 332 334 336 337 341 340 337 337 336 337 340 340 341 341 345 350 354 356 357 358 355 356 356 354 353 356 360 360 358 358 360 357 355 357
307 308 308 305 304 304 303 300 299 308 308 312 313 315 317 320 318 315 302 304 317 319 319 319 318 318 319 320 319 319 315 311 313 318 321 322 323 324 325 324 325 325 326 326 327 329 329 331 331 329 329 328 331 333 335 337 339 339 337 337 338 335 337 338 340 344 347 348 350 354 353 353 353 353 355 353 355 356 355 358 358 358 355 358 354 355
308 309 307 304 305 305 302 302 304 309 313 314 314 315 318 320 317 306 300 311 319 319 320 320 319 319 320 319 318 315 319 319 320 322 322 324 324 324 325 326 326 327 326 326 327 332 330 330 329 329 329 330 333 334 336 336 335 336 338 337 335 336 338 339 341 344 347 348 348 350 353 356 354 351 352 353 355 356 356 357 357 356 355 355 356 354
309 309 310 308 305 304 306 302 303 310 313 315 317 316 318 314 305 303 314 322 320 319 319 319 318 319 319 319 318 318 320 321 323 323 323 324 324 324 325 325 326 327 328 330 330 330 329 328 329 331 330 331 332 333 335 336 335 334 336 336 335 336 340 341 341 343 345 345 348 348 349 353 351 352 351 352 353 353 354 357 357 356 356 356 354 352
308 305 305 306 309 307 307 303 301 296 312 316 314 315 318 310 312 317 319 320 320 318 318 318 319 320 320 319 321 321 322 322 322 323 323 323 324 324 324 325 326 325 325 326 327 327 327 327 327 328 330 332 333 333 334 335 334 335 335 334 336 338 340 341 341 341 342 342 344 348 349 351 351 349 349 350 350 351 351 352 355 356 356 354 353 354
312 305 306 309 310 303 304 301 300 309 315 317 318 311 315 317 319 320 319 316 317 319 319 320 323 322 322 321 321 321 322 322 322 323 323 323 323 324 324 325 326 326 325 324 324 325 327 326 328 329 330 331 333 333 334 334 333 334 334 335 338 339 340 340 339 340 339 340 341 342 345 349 350 348 349 349 349 350 351 352 353 354 354 354 354 352
313 311 310 306 311 309 307 309 314 317 316 317 317 315 316 319 321 319 318 318 319 320 321 320 321 320 323 323 322 321 320 321 321 322 321 322 322 323 323 324 324 324 323 323 323 326 327 326 328 329 331 332 333 334 335 335 334 334 334 336 339 340 339 338 338 337 337 338 339 340 342 345 351 350 348 348 348 348 348 351 351 350 353 352 350 352
313 315 316 315 312 315 316 317 316 317 316 315 317 318 317 318 320 320 319 319 321 322 322 321 320 321 321 323 320 320 319 320 320 320 321 321 321 321 323 323 323 324 324 324 325 326 327 328 329 330 330 332 334 334 336 335 335 334 335 337 338 339 338 337 337 337 337 337 338 338 340 341 346 351 350 349 348 348 348 348 347 348 350 348 348 351
313 313 312 309 313 308 304 315 315 314 315 316 316 318 319 319 321 323 323 322 322 323 322 323 322 322 322 322 320 320 319 319 319 319 320 319 319 320 320 321 323 324 325 325 327 328 328 329 328 329 330 330 333 334 334 336 336 336 337 337 336 337 337 337 336 336 336 336 336 338 338 339 340 347 350 350 349 346 345 346 346 346 346 349 349 347
310 314 310 310 310 308 311 314 316 316 318 317 318 318 318 320 322 323 323 324 325 325 324 323 322 320 321 320 321 320 320 320 319 319 319 319 319 320 321 323 324 325 326 328 329 330 330 330 329 330 329 329 331 333 334 334 335 336 337 337 337 336 336 335 335 334 334 334 336 336 337 336 336 339 345 349 349 346 343 343 343 342 344 345 347 344
312 314 307 310 309 311 312 314 316 317 316 317 319 320 321 320 320 321 323 322 320 321 322 322 322 321 320 320 322 321 319 319 320 321 319 320 320 321 322 322 325 326 327 328 329 329 329 328 327 328 328 328 330 330 331 333 334 334 336 336 336 336 335 334 334 334 335 335 334 335 337 337 336 335 338 346 348 348 345 344 341 341 342 346 349 349
311 308 310 309 307 305 305 310 313 308 308 313 316 318 319 322 321 320 321 320 320 320 321 320 320 321 320 320 320 319 318 319 320 320 319 320 320 321 322 323 325 325 326 327 328 328 328 329 329 328 327 328 330 330 330 331 331 332 335 336 336 335 334 334 333 333 333 334 334 334 334 335 333 333 334 342 344 345 345 345 334 338 345 343 344 338
310 312 310 306 307 306 312 315 317 316 314 316 317 319 321 321 320 319 319 320 320 320 320 319 318 319 320 321 321 320 319 319 320 321 321 320 321 322 323 325 325 326 325 326 325 326 326 327 328 328 328 328 329 329 330 330 331 332 333 334 335 335 334 334 332 333 332 333 332 331 333 334 334 335 336 336 337 341 340 341 350 314 315 326 335 328
Wind_Speed
2 7 6 6 5 5 5 4 5 6 6 6 6 5 5 5 3 6 3 3 3 5 4 3 6 8 9 6 3 4 4 5 5 6 5 5 6 7 8 8 8 8 7 6 7 7 9 9 9 9 9 10 11 12 12 12 13 12 12 11 11 10 10 9 9 9 8 8 8 8 9 9 8 8 7 6 6 6 6 5 6 7 6 7 7 7
5 7 9 5 6 3 4 4 3 5 5 6 7 6 5 4 4 6 3 2 1 5 2 1 5 9 9 7 4 3 5 5 6 7 7 7 7 7 8 9 9 7 5 5 6 8 8 8 10 10 9 10 12 12 12 13 13 13 14 13 11 10 10 10 9 9 9 8 8 8 9 9 8 7 7 7 7 5 5 6 6 7 7 7 6 6
9 10 8 5 2 2 1 3 3 6 7 6 7 5 6 2 4 6 4 2 2 4 3 2 7 7 6 4 2 2 3 2 1 3 4 6 7 7 7 8 9 8 8 8 8 8 9 10 11 10 10 10 12 13 13 13 13 14 13 12 11 11 10 11 11 8 8 10 9 8 7 8 7 5 5 4 3 2 5 6 6 7 7 6 7 7
9 10 4 7 3 4 3 4 4 6 7 7 6 7 6 6 7 1 5 2 3 4 6 6 9 6 6 3 1 3 3 3 3 4 5 5 6 6 7 7 7 9 9 9 9 9 9 9 10 10 10 10 11 11 12 13 14 12 12 12 13 11 11 10 11 11 12 10 10 9 7 6 5 3 10 6 5 7 8 7 7 6 6 8 7 8
8 7 4 3 1 5 6 2 6 7 9 8 8 7 8 5 3 6 6 3 3 3 4 7 5 5 1 2 3 5 4 4 4 6 7 6 5 4 4 5 6 6 7 7 8 8 9 10 11 11 11 10 10 11 12 12 12 10 13 13 13 12 11 10 10 11 9 8 8 7 6 5 5 2 4 7 8 7 6 6 7 7 7 7 7 8
13 2 3 2 3 4 6 7 6 8 9 6 8 8 7 5 6 5 3 7 5 5 2 5 6 1 3 3 3 3 3 5 5 6 8 7 5 5 6 6 5 5 5 6 7 7 8 9 9 10 11 11 10 11 10 10 11 11 11 12 12 11 10 11 11 12 9 9 8 8 8 8 7 6 8 8 8 7 7 7 6 7 8 8 8 7
2 6 2 4 5 5 6 7 1 4 9 7 3 4 1 4 5 5 6 6 6 6 4 1 7 4 1 3 2 1 2 4 4 4 6 6 6 6 4 4 4 5 6 7 7 6 7 8 8 10 10 11 10 10 9 9 9 10 9 10 12 10 10 10 10 11 11 8 9 11 11 9 9 8 8 7 7 6 7 5 6 6 6 7 8 7
6 4 4 5 6 7 6 8 8 7 6 7 7 2 2 4 5 6 8 5 6 2 4 6 5 6 6 4 3 2 5 9 9 7 5 3 5 3 2 2 3 4 4 4 4 5 5 6 7 8 8 8 9 8 8 8 8 9 9 9 10 9 9 10 10 12 10 11 8 10 10 10 9 10 7 7 7 5 4 8 10 7 6 7 7 5
6 6 6 7 7 6 8 4 7 4 7 3 4 4 4 4 5 7 7 7 5 6 7 5 3 6 3 2 5 2 7 3 7 5 1 2 7 6 4 3 3 2 2 2 2 2 3 4 4 5 5 6 6 6 7 7 7 7 8 8 9 9 9 9 10 10 12 11 9 7 5 6 9 8 6 7 7 6 7 7 6 8 8 6 7 7
3 4 0 5 6 7 4 3 4 3 10 5 4 1 2 3 5 5 7 6 3 6 8 1 2 7 4 3 1 9 7 1 9 3 5 3 9 7 6 5 6 5 4 3 2 2 2 2 2 2 3 4 5 5 5 5 5 6 7 8 9 10 8 7 9 8 10 10 9 9 11 9 5 7 6 5 5 7 6 8 8 7 7 7 7 7
3 2 1 5 6 6 5 2 2 6 4 1 3 6 7 7 6 3 5 5 5 8 5 2 3 6 6 4 5 3 3 4 5 6 5 5 8 8 7 7 7 6 5 4 3 3 3 2 2 2 3 3 4 4 4 5 5 6 7 8 10 10 6 4 4 4 6 8 7 7 5 5 5 6 7 5 2 4 7 6 9 8 8 9 7 6
8 6 6 4 8 4 5 7 4 4 3 4 6 7 6 7 4 6 5 4 7 6 5 2 2 3 6 2 4 4 3 0 4 6 6 7 9 7 8 8 8 7 7 6 5 4 4 4 3 3 3 3 3 3 3 4 5 6 8 8 8 7 6 3 4 4 7 6 6 9 10 8 4 2 8 5 8 7 6 6 5 4 6 6 7 6
8 8 2 4 3 5 5 8 6 6 6 7 7 6 7 4 4 7 6 8 8 2 4 3 1 4 5 4 6 1 3 2 1 2 5 7 8 8 9 10 8 7 8 7 6 5 3 3 3 3 2 2 2 2 3 3 5 6 7 7 6 5 6 6 5 6 6 3 4 7 7 6 0 3 6 8 8 6 7 5 8 4 5 7 6 6
7 4 5 5 5 6 5 9 7 8 9 8 8 6 6 7 7 6 6 2 6 4 3 2 1 6 4 4 2 4 2 2 2 2 4 5 7 7 8 8 9 9 8 8 7 6 5 4 3 3 2 2 1 1 2 4 5 4 3 4 6 7 9 9 8 7 5 7 6 5 6 1 1 0 5 6 6 2 4 10 6 2 5 5 7 11
7 9 6 3 2 4 6 8 9 8 7 8 3 5 6 5 6 5 5 6 3 2 4 3 6 3 5 4 2 2 2 2 4 6 6 5 5 6 7 8 10 10 9 8 7 7 6 5 4 3 3 2 2 2 2 3 4 3 3 5 8 9 9 8 8 8 9 7 7 6 2 1 2 5 3 5 1 1 3 4 11 7 2 2 3 2
5 3 8 5 5 3 3 4 4 5 5 2 2 3 6 6 2 9 6 6 6 4 4 5 6 0 2 6 2 1 2 5 6 8 7 6 7 7 8 9 9 9 9 8 8 8 7 6 5 4 4 3 2 2 2 3 3 4 4 6 8 9 9 8 7 6 7 7 7 7 5 4 5 4 4 1 0 1 2 4 4 7 7 1 1 1
6 3 7 6 2 4 5 2 2 4 5 6 6 8 3 6 6 5 5 3 6 5 6 1 5 5 3 4 4 3 3 5 6 8 6 8 7 9 9 9 9 9 9 8 8 7 6 6 5 5 4 3 3 2 2 3 3 3 4 5 6 6 6 5 5 6 6 8 8 8 7 6 6 5 4 3 2 2 3 5 6 5 4 4 2 3
6 4 5 4 5 4 1 2 3 2 5 4 7 5 5 3 5 5 6 3 7 7 1 3 5 2 2 4 4 9 10 8 6 7 7 6 6 9 9 9 8 9 8 9 8 7 7 6 5 5 5 3 2 2 2 1 1 2 4 4 4 5 6 6 6 6 6 6 5 4 4 4 4 3 2 1 2 3 4 4 3 1 3 6 5 4
4 4 7 1 2 3 4 4 5 5 1 6 6 3 7 3 7 5 5 8 8 6 6 3 2 5 6 4 7 6 7 1 2 7 3 3 7 8 8 9 9 8 7 7 7 7 6 6 6 5 4 4 2 0 0 1 1 2 4 4 4 3 4 6 5 5 5 4 3 3 3 4 3 3 3 3 5 6 5 2 3 6 7 6 6 5
2 5 4 4 4 3 5 5 6 4 6 1 1 4 1 6 6 5 3 7 4 9 5 2 2 1 7 7 10 9 9 8 7 3 4 7 9 8 7 7 8 7 7 7 7 7 6 6 6 5 3 2 2 1 1 1 1 2 3 3 4 3 3 5 5 5 5 4 3 2 2 1 2 2 3 4 7 6 5 5 6 6 8 8 5 8
1 1 6 5 2 5 4 2 4 4 4 4 6 4 3 2 2 6 2 6 6 8 6 7 8 4 6 7 9 10 9 8 8 7 8 8 9 9 9 8 7 8 7 7 7 7 7 5 4 3 2 2 1 1 1 1 1 2 3 4 4 5 4 4 4 5 5 4 4 3 2 1 2 4 5 7 8 7 6 7 7 6 6 7 8 7
3 3 4 2 5 0 5 4 5 4 4 5 5 3 6 6 6 7 5 4 6 6 5 6 4 7 7 6 7 8 8 9 9 9 9 10 10 10 9 9 8 7 7 7 8 8 7 5 3 2 1 1 1 1 2 1 1 2 3 3 3 3 4 3 3 3 3 2 3 3 3 4 5 7 8 8 6 7 9 6 7 7 6 9 9 7
5 1 5 4 3 2 5 4 1 3 4 5 5 3 5 4 6 5 7 3 4 4 6 5 9 5 6 6 7 8 9 11 11 10 11 12 12 12 11 11 10 9 8 8 8 8 7 6 5 4 4 3 3 2 1 1 1 1 2 3 2 1 1 2 2 2 3 3 3 3 3 5 8 9 10 10 8 8 9 6 6 7 8 8 8 8
3 4 2 1 1 3 4 2 1 3 4 6 3 2 4 5 6 7 6 5 8 3 6 6 7 5 6 6 7 9 10 10 10 11 12 12 12 13 13 13 12 11 10 10 9 8 7 7 7 7 7 6 5 4 3 1 1 1 2 3 2 3 3 3 5 6 5 5 5 4 4 7 10 10 9 8 7 8 8 6 6 7 9 9 8 8
6 3 4 3 4 3 4 4 6 5 6 4 3 4 3 2 3 5 5 3 8 3 7 8 6 2 6 4 7 9 9 11 13 12 12 12 12 12 12 12 11 12 12 12 12 11 10 10 10 9 9 9 8 7 6 5 4 2 2 3 2 3 1 2 2 3 5 5 5 5 4 7 8 7 8 6 6 7 6 7 8 6 7 8 9 9
5 1 5 6 6 6 5 4 3 1 2 1 1 2 1 5 5 7 7 2 6 1 4 8 1 4 7 5 9 10 9 9 8 9 10 12 13 12 12 12 11 11 11 12 12 13 13 12 11 11 11 9 9 8 7 7 6 6 5 5 4 4 3 1 2 3 4 5 6 7 8 8 8 7 8 7 8 8 8 7 8 9 7 7 9 9
2 1 4 4 6 8 6 4 3 4 4 8 3 4 2 1 3 6 5 8 8 4 6 5 3 9 7 6 7 8 7 7 8 8 9 9 11 11 12 12 11 11 10 11 12 11 12 13 13 13 12 11 11 10 9 9 9 7 6 6 5 4 4 3 2 2 4 5 6 5 6 7 8 7 8 9 10 8 8 8 8 9 9 7 8 9
3 6 5 5 7 6 2 3 1 4 9 6 8 5 2 3 4 7 7 7 7 9 10 5 0 6 5 7 7 6 6 7 7 8 9 10 9 10 10 11 13 13 13 12 12 13 13 12 13 13 13 13 12 11 10 9 9 9 8 7 6 5 4 4 3 4 5 6 7 5 7 7 7 7 9 9 7 9 10 9 8 8 8 8 9 10
4 7 4 6 7 3 2 2 3 5 5 5 6 6 6 2 5 9 8 6 6 8 9 3 2 7 6 6 6 6 7 9 9 10 10 10 10 10 10 11 11 12 12 13 13 12 12 12 12 12 12 12 13 13 12 10 9 8 8 7 6 6 6 6 5 5 5 7 8 7 8 8 8 9 9 9 10 10 9 8 8 7 8 9 10 9
4 9 3 6 8 7 6 6 4 7 5 6 5 3 3 5 4 5 6 4 6 4 1 5 7 8 6 6 6 7 6 7 7 5 6 7 8 7 8 9 10 10 10 11 11 12 12 12 11 12 12 13 13 13 12 10 10 9 9 9 8 6 5 5 6 6 5 6 7 9 11 13 12 10 10 10 10 9 8 8 8 8 9 10 10 10
4 1 1 6 8 11 9 5 6 7 6 8 3 4 4 3 3 1 3 1 1 2 5 6 6 5 4 5 7 6 5 4 4 5 5 5 6 7 7 7 8 9 9 10 11 11 11 12 11 11 13 13 13 12 10 10 10 10 9 8 8 7 6 5 4 6 6 5 4 7 8 9 9 8 9 9 10 9 9 9 9 10 11 10 10 11
4 4 1 6 8 10 8 9 7 6 6 10 7 6 6 5 8 4 4 1 6 3 5 6 5 5 6 7 7 5 3 3 4 5 5 5 7 8 8 8 8 8 9 9 10 11 12 12 12 11 10 12 12 12 11 10 9 9 10 9 9 8 6 5 4 4 5 5 5 5 5 6 7 8 9 9 10 10 10 10 10 10 10 10 11 11
3 5 6 6 9 11 1 5 5 6 7 9 12 7 3 1 1 3 2 1 4 4 6 6 1 6 9 7 7 4 0 2 5 4 3 5 6 6 6 6 6 6 6 7 8 9 10 11 11 11 10 9 10 10 11 10 10 10 10 10 9 8 7 6 5 4 5 5 6 6 6 7 7 9 9 8 10 9 9 10 11 11 10 11 10 10
3 6 7 5 7 6 4 4 4 7 9 4 8 6 1 1 3 4 2 2 2 3 2 5 5 8 8 5 2 1 4 3 2 1 3 4 3 3 3 3 3 4 5 5 6 7 7 8 9 11 11 10 9 9 9 10 10 9 9 8 9 8 8 7 5 4 5 6 7 7 7 7 8 9 9 7 8 8 10 10 10 10 10 9 10 10
5 4 6 3 6 8 4 5 7 10 6 8 3 5 3 2 3 7 7 4 4 3 4 6 7 6 3 1 1 2 0 2 2 2 2 1 3 3 1 2 2 3 4 4 6 7 8 9 10 10 13 13 12 10 9 9 10 9 9 8 8 9 8 8 8 7 6 6 7 7 7 7 7 7 6 6 5 7 8 11 11 11 10 10 10 11
6 6 4 5 6 1 3 6 8 2 7 4 6 5 7 5 8 9 7 4 3 4 3 4 4 2 1 2 1 2 3 2 2 2 2 3 4 5 6 6 5 5 6 6 7 6 8 9 10 11 11 11 11 11 9 9 9 10 10 8 7 8 8 8 8 8 8 8 7 7 7 7 7 7 7 5 6 9 10 11 12 11 11 10 10 10
8 5 4 5 4 7 5 8 4 6 7 7 5 5 5 4 6 5 3 5 2 2 1 5 6 5 3 2 1 2 3 4 4 3 2 2 5 6 7 8 7 7 7 7 8 8 8 9 9 10 10 10 10 11 10 8 9 10 10 10 8 8 8 8 9 9 8 8 9 8 8 7 7 7 7 8 8 10 10 11 10 10 9 9 10 11
6 6 1 6 5 6 6 6 5 5 9 7 5 6 3 2 4 1 2 4 3 2 1 3 5 4 4 4 3 1 3 5 3 4 4 6 7 8 8 8 9 9 9 9 9 9 9 9 9 10 10 12 12 11 10 9 9 10 9 9 9 9 8 9 9 9 10 9 9 9 8 8 8 7 8 8 7 8 9 9 7 8 10 11 11 12
4 1 1 7 2 5 6 8 5 7 4 5 6 4 3 1 3 1 5 5 5 2 2 1 3 4 4 4 4 5 4 6 3 2 6 5 6 7 8 8 9 10 10 10 11 11 10 11 12 12 12 11 11 10 11 11 10 9 9 9 9 9 9 9 9 10 11 11 10 10 9 8 7 7 6 7 9 8 9 10 10 10 7 8 10 11
5 5 4 6 6 5 7 6 6 4 4 4 4 1 4 2 4 5 8 3 6 3 3 1 3 3 4 4 5 3 4 5 5 6 8 8 8 8 8 9 10 10 10 11 10 10 11 10 10 11 11 13 12 11 11 10 9 10 10 9 9 10 9 9 10 10 11 12 12 10 8 8 9 7 6 9 9 8 9 9 9 8 9 8 9 10
2 4 5 6 6 3 3 7 4 6 7 5 4 3 3 1 3 8 7 4 4 4 3 1 2 3 4 5 5 5 4 4 6 7 9 9 9 9 8 8 8 9 11 11 11 11 10 10 10 11 12 11 11 11 11 10 10 10 10 10 10 10 9 9 10 10 10 11 12 12 10 8 8 9 8 7 7 8 8 9 10 10 10 11 10 9
4 2 3 4 6 6 3 6 3 7 4 4 2 3 3 4 6 4 5 3 4 4 2 2 2 2 3 4 5 5 6 7 8 8 9 8 8 9 9 9 9 10 10 10 11 11 10 10 11 12 13 12 13 12 11 11 12 11 11 11 11 11 9 9 10 9 10 11 11 12 11 9 9 7 8 8 8 8 9 8 9 10 10 8 9 11
5 4 3 3 3 4 4 6 6 4 6 6 4 3 3 7 5 5 5 3 3 4 1 2 2 2 3 4 4 6 6 7 8 8 8 9 9 10 10 10 10 11 11 12 12 11 11 11 12 12 12 12 13 13 13 13 14 13 12 12 12 10 9 9 9 10 10 10 11 12 11 9 9 8 7 8 8 9 9 9 8 10 9 10 11 11
4 6 3 1 4 6 6 5 3 7 5 7 4 1 7 9 5 4 1 4 2 2 2 1 2 2 3 4 6 7 7 8 8 8 9 9 10 10 10 9 10 11 12 13 13 13 12 12 11 11 12 12 12 12 12 12 13 12 13 14 11 10 9 9 9 9 10 10 10 11 11 9 8 8 7 8 8 8 9 9 9 9 9 9 7 7
6 4 5 4 5 4 5 4 5 5 5 7 9 8 8 7 5 3 3 4 2 3 2 3 3 3 3 5 6 7 7 7 8 9 9 10 10 11 11 11 11 12 13 13 14 13 12 12 13 13 13 13 14 12 12 11 13 14 14 12 11 10 10 10 10 10 10 10 10 11 11 9 7 7 8 7 7 8 8 9 8 9 8 8 8 7
3 3 2 5 3 3 4 6 5 4 5 6 6 6 6 7 5 4 6 3 4 4 4 5 5 5 6 5 8 7 8 9 10 10 10 11 12 12 11 12 12 12 13 13 13 12 13 13 14 14 14 14 14 13 12 12 12 14 13 12 11 11 10 10 10 10 11 11 11 11 11 11 10 7 6 7 7 7 7 7 8 7 6 7 8 7
3 2 3 3 4 4 2 4 2 5 4 4 5 5 5 5 5 3 3 3 3 3 4 3 5 5 6 7 7 8 10 11 11 11 11 11 12 13 13 13 13 13 13 14 14 14 13 13 13 14 14 15 14 14 13 14 13 13 12 12 12 11 11 10 10 11 11 11 11 11 11 12 9 7 5 6 6 7 7 6 6 7 7 7 7 8
5 3 5 2 1 3 3 3 2 4 1 2 2 1 2 3 3 3 2 1 1 1 3 4 5 6 6 7 7 9 10 11 11 11 12 12 13 13 13 13 14 15 15 15 14 14 14 14 14 15 16 16 15 14 14 14 14 14 14 13 13 12 12 11 11 11 11 13 12 11 11 11 12 10 7 6 6 7 7 6 6 6 6 6 6 8
5 4 2 1 4 2 5 4 2 2 3 3 3 4 4 4 3 3 4 5 5 5 5 6 5 7 8 8 8 9 11 12 11 12 13 13 13 13 13 14 14 15 15 15 14 14 13 14 15 15 16 16 16 15 14 15 14 14 15 14 13 12 12 12 12 11 12 12 12 12 11 11 11 10 9 7 7 7 8 8 7 6 6 5 5 6
5 3 2 4 5 3 4 4 0 5 2 4 5 5 4 3 5 6 6 7 7 6 6 8 9 8 9 10 11 11 12 11 12 12 14 13 13 14 14 14 14 15 15 15 14 15 15 15 15 16 16 15 14 14 15 15 15 15 14 13 13 12 13 13 12 12 12 11 11 11 12 11 11 10 9 8 7 7 7 8 10 7 6 6 5 6
4 5 5 5 5 5 6 5 3 3 1 5 5 5 5 6 7 6 6 7 7 8 7 8 10 10 10 10 10 12 12 12 13 13 14 13 13 13 14 15 15 14 15 16 16 16 16 16 16 16 16 15 14 14 14 14 15 14 14 14 13 13 13 12 11 11 11 11 11 12 12 11 10 10 10 9 9 8 8 8 8 14 14 11 11 8
Wind_Direction
3 269 265 251 265 3 3 313 319 318 318 305 280 277 285 306 290 95 62 14 346 272 249 275 278 284 284 287 275 172 173 197 226 232 211 219 207 202 199 216 215 218 225 203 213 217 213 208 207 211 210 209 211 209 207 206 208 209 213 212 209 205 204 197 193 195 198 199 202 201 211 219 205 212 209 213 212 211 218 208 191 194 195 211 213 205
250 258 248 287 8 347 355 342 296 286 273 284 290 273 294 277 311 40 25 13 201 278 77 195 283 282 282 283 290 172 193 228 231 225 225 219 215 201 211 210 217 219 210 198 196 203 208 206 206 207 210 211 215 211 209 209 207 208 212 211 209 205 201 200 194 199 198 207 204 203 204 212 207 197 204 212 215 208 187 203 198 205 207 202 207 198
241 247 257 71 59 58 347 298 275 274 270 250 265 299 286 261 352 111 84 122 120 250 332 15 303 291 286 300 317 219 242 268 267 262 236 221 217 204 208 215 215 212 209 200 210 203 207 208 208 211 214 214 220 219 213 211 208 207 209 211 207 207 203 202 196 187 204 209 206 207 204 216 215 177 142 198 214 116 199 194 199 213 199 205 209 193
243 242 257 87 49 298 259 241 257 249 244 255 240 239 269 32 302 205 130 165 174 279 332 333 311 298 276 244 164 126 192 182 183 218 234 232 223 214 209 210 214 213 211 214 211 211 207 207 207 212 215 216 216 219 219 211 207 207 207 207 205 206 207 204 201 194 208 203 196 199 217 206 242 193 157 164 232 199 197 201 196 190 193 196 198 188
253 66 47 42 332 289 281 231 247 236 235 215 260 280 283 305 10 321 10 312 212 207 250 279 269 270 347 281 169 139 151 171 177 191 206 216 225 230 234 223 222 227 218 225 225 214 207 209 208 209 211 213 215 214 218 214 205 206 204 203 201 202 203 205 201 201 203 195 187 190 195 199 204 218 209 191 208 214 199 209 197 183 197 193 191 207
255 301 30 263 271 262 265 238 210 254 252 233 214 259 303 324 298 314 313 304 247 180 144 340 296 2 51 287 356 82 163 154 160 182 192 186 185 203 209 214 207 222 236 231 231 234 219 214 213 209 211 213 216 218 219 218 213 207 204 200 197 199 203 206 199 200 197 194 194 192 191 202 196 202 208 206 217 201 188 204 200 180 183 187 190 195
14 89 212 270 259 266 251 272 284 237 261 267 91 168 256 301 311 301 298 285 280 323 73 254 307 336 5 327 133 95 65 97 129 187 156 153 175 187 198 195 199 206 216 227 244 241 232 222 217 212 213 214 218 218 216 216 220 211 206 200 195 200 202 205 203 196 204 196 201 197 202 202 199 204 211 207 217 212 159 172 179 194 180 185 190 199
211 155 180 222 254 244 244 238 186 231 261 254 68 122 82 285 286 311 308 282 293 314 221 227 263 306 302 90 120 64 43 61 52 359 25 116 158 148 135 155 191 208 221 234 237 231 236 228 228 220 219 222 220 217 208 210 210 214 207 200 198 199 203 204 203 200 203 207 201 210 210 215 215 202 206 192 202 214 205 177 164 170 179 183 199 199
195 179 208 224 234 246 246 334 62 246 255 359 56 5 300 306 316 296 285 288 317 317 283 186 196 261 282 100 118 33 127 61 131 234 85 17 93 108 116 126 142 171 177 207 194 191 207 217 223 230 225 229 228 213 210 201 203 204 205 205 200 204 204 208 207 202 210 218 210 208 224 241 239 225 213 184 199 207 193 235 157 159 172 180 200 195
142 266 354 288 281 261 345 5 290 225 249 69 59 340 276 246 258 279 276 285 277 275 276 53 217 282 298 19 145 63 13 272 75 13 85 194 82 88 99 107 108 119 124 146 159 139 139 168 204 222 230 218 224 212 213 213 202 202 202 204 206 208 207 208 212 218 219 225 224 220 217 218 241 250 214 209 182 205 202 204 218 166 163 188 187 183
27 128 9 265 254 297 329 324 293 250 283 2 281 263 224 231 245 241 268 283 283 251 263 50 276 287 299 71 351 33 96 226 130 111 145 81 82 81 83 94 94 93 102 108 113 105 108 94 135 171 206 213 209 208 201 206 206 210 210 208 211 210 204 201 223 271 300 277 277 242 264 245 208 265 256 244 191 267 210 217 220 192 181 180 187 175
221 180 213 197 236 265 271 253 197 242 221 238 241 249 259 222 215 245 226 234 263 258 74 20 309 247 269 100 143 124 195 261 101 153 118 82 74 78 76 72 69 84 99 105 104 108 117 125 137 164 192 207 205 211 199 206 206 210 213 215 214 212 207 183 139 147 209 225 268 307 277 269 246 212 321 339 266 247 254 221 279 247 175 182 162 181
201 205 163 155 172 256 223 259 165 190 194 221 234 239 247 233 209 226 199 231 220 282 92 72 323 232 232 324 22 84 66 104 261 41 74 80 85 80 83 81 76 76 86 96 106 110 110 109 123 144 152 173 187 202 202 213 217 218 218 218 218 209 196 172 164 194 206 187 228 239 264 230 193 155 211 264 283 268 282 272 224 169 248 166 169 197
140 134 178 132 191 187 279 265 169 198 189 214 221 225 235 247 230 258 251 299 289 114 74 77 334 265 302 98 0 345 29 80 116 97 80 86 81 79 82 84 82 76 75 77 83 88 93 100 101 100 107 111 111 160 187 206 223 220 227 228 219 208 187 184 187 206 205 218 210 225 238 255 273 34 221 233 231 279 282 294 284 274 217 242 180 186
166 190 158 286 167 118 257 264 333 330 173 214 281 250 265 295 292 275 263 256 274 348 101 88 240 342 303 49 116 3 31 99 112 112 105 101 96 87 79 80 75 73 75 81 74 77 87 88 88 93 91 94 101 129 185 204 213 219 219 217 213 211 202 195 182 195 216 214 205 194 179 193 216 229 229 230 163 288 329 336 317 294 303 325 313 78
287 20 71 40 13 324 306 13 310 299 237 125 233 284 254 253 73 268 7 314 328 302 219 156 286 40 9 146 127 234 120 114 114 114 120 115 118 109 87 70 69 71 72 74 81 80 79 92 96 98 98 96 114 149 197 207 200 205 212 217 217 213 207 196 178 190 205 222 226 214 209 209 214 221 234 224 151 356 360 314 280 291 286 322 249 238
183 171 82 97 93 43 43 320 229 275 285 135 216 230 16 33 276 280 239 265 276 246 268 54 245 207 199 133 29 48 109 100 102 73 58 88 95 84 73 69 67 69 69 70 70 72 75 81 82 86 96 102 114 160 200 208 202 210 218 222 214 214 200 187 176 195 213 218 220 218 216 209 212 231 251 284 0 352 306 263 250 262 292 296 332 316
300 110 123 202 141 108 357 28 11 247 291 235 240 69 93 41 308 274 283 161 249 269 226 233 273 291 259 98 349 22 53 347 59 83 80 63 39 62 67 67 68 71 79 83 80 74 78 73 76 90 91 92 102 146 202 196 205 210 236 235 217 208 218 218 214 214 229 237 240 248 245 243 256 260 265 226 213 216 215 231 285 258 226 252 240 215
309 217 141 95 324 112 183 228 173 118 260 303 353 27 267 218 220 190 270 247 259 247 286 217 241 278 22 38 26 26 25 28 15 86 336 46 56 56 62 73 71 73 74 69 69 70 64 68 81 77 92 98 113 117 31 83 146 219 223 232 223 226 217 224 220 230 241 247 263 283 292 296 293 273 245 221 208 219 190 132 181 210 228 242 239 236
232 285 136 140 279 99 229 238 250 144 143 100 257 214 54 270 309 270 253 314 292 275 273 202 242 32 28 20 353 0 354 352 355 31 47 39 47 53 53 56 63 65 65 69 69 63 65 68 61 67 67 91 111 142 101 96 135 214 250 212 225 176 194 211 218 217 222 227 244 266 294 291 296 272 257 240 232 212 182 187 203 215 241 241 234 235
235 327 265 126 155 226 234 14 340 332 297 210 232 244 181 319 17 299 288 279 296 296 284 298 279 70 47 10 2 358 0 6 7 37 52 45 48 54 50 52 57 59 63 67 67 67 67 63 70 80 97 116 133 92 86 112 140 214 253 247 198 200 214 214 218 218 225 216 198 220 247 265 257 248 237 233 229 227 210 193 195 217 238 246 238 235
244 218 293 300 224 314 52 52 34 8 353 337 316 350 322 287 252 263 255 165 262 257 280 270 288 78 41 8 16 8 14 22 34 53 60 56 54 52 54 51 45 53 57 62 66 67 63 55 56 68 80 108 138 129 103 41 77 185 237 261 266 185 186 229 224 222 239 243 236 220 212 208 219 213 213 225 239 249 238 206 198 207 222 236 233 230
322 334 279 263 351 7 101 110 29 6 340 6 339 352 314 296 291 272 281 264 238 257 304 290 288 88 32 27 33 40 34 39 48 58 64 62 57 55 57 57 53 46 38 44 57 57 48 46 29 22 357 357 7 29 45 87 274 250 216 247 257 250 231 186 180 201 187 180 189 206 212 217 213 211 212 216 221 227 234 226 204 208 218 228 231 224
265 248 209 96 99 122 158 192 216 255 270 241 157 0 328 358 354 329 332 343 291 255 247 250 242 62 49 31 55 57 57 56 56 57 61 61 59 57 51 52 51 52 49 46 46 47 36 26 20 17 10 5 1 1 349 337 274 281 300 294 279 250 172 193 165 168 173 175 161 165 214 221 223 220 216 214 222 220 222 237 234 218 218 223 230 232
253 140 272 212 220 180 181 193 209 180 242 265 310 59 356 313 327 325 299 277 264 338 322 284 297 137 68 37 61 69 65 69 70 65 57 59 56 54 54 49 47 45 43 42 45 46 41 35 26 16 7 4 4 359 349 327 308 298 273 269 279 285 296 157 169 172 173 170 150 131 188 227 239 239 244 227 231 236 236 232 233 246 235 227 225 224
260 336 227 259 271 270 267 267 282 236 268 347 293 236 166 321 328 307 268 301 289 355 296 276 191 99 110 86 72 64 67 62 59 71 74 65 57 52 53 53 48 45 41 38 40 40 37 33 30 23 21 15 10 2 355 338 330 332 332 320 321 309 315 162 218 169 181 173 152 157 199 226 242 243 247 254 255 253 242 225 217 220 233 239 235 224
276 204 256 283 269 271 289 312 43 287 267 272 130 254 267 270 303 283 293 272 277 348 277 298 54 148 131 98 77 69 55 63 71 71 62 61 66 64 60 56 53 49 43 39 41 40 37 35 30 26 24 21 18 15 7 354 356 358 1 346 335 321 301 292 247 195 198 167 153 161 229 239 237 236 241 238 241 245 232 221 214 215 219 222 232 236
219 247 194 234 249 280 316 256 218 232 275 277 276 269 227 264 279 284 282 298 6 310 277 50 100 160 109 85 78 72 75 77 69 69 76 75 66 60 63 61 53 46 39 36 38 39 37 33 28 24 22 21 20 18 13 8 5 357 358 350 346 339 317 296 270 216 205 174 150 162 235 242 241 244 239 237 240 236 228 220 217 211 209 215 221 225
286 267 162 236 243 229 242 193 197 239 253 284 272 285 281 299 265 272 293 334 318 281 303 98 90 109 99 90 91 94 100 92 83 76 68 61 54 53 45 40 40 38 33 27 23 25 30 32 30 25 22 20 18 18 12 7 8 4 359 355 352 340 328 320 296 260 214 190 159 179 232 250 245 234 226 229 234 231 227 224 222 219 212 209 214 219
299 259 252 242 267 235 213 219 210 244 233 241 248 251 270 273 295 297 295 314 286 287 17 94 93 92 92 108 124 119 99 90 90 83 73 59 54 38 29 25 25 27 28 27 23 17 18 21 23 23 23 20 18 14 12 4 358 355 355 357 349 350 337 318 304 292 262 226 173 183 198 212 216 211 217 224 234 232 226 223 221 220 220 217 214 216
277 334 90 246 255 253 227 206 229 243 239 251 224 236 230 247 271 306 299 256 166 176 125 122 119 119 97 119 128 132 128 124 73 52 45 37 19 13 17 24 34 28 25 19 19 14 11 13 15 14 15 16 13 10 7 3 356 351 353 354 357 354 350 329 312 304 291 271 232 184 197 213 211 216 222 217 227 226 222 226 223 218 216 215 215 216
225 262 187 256 260 263 225 218 225 232 238 259 246 221 218 227 243 211 245 111 270 226 196 173 182 153 163 161 150 146 137 89 42 359 2 355 5 12 9 24 40 34 25 16 11 6 2 360 5 8 10 11 10 7 2 358 356 352 352 349 352 349 342 334 306 289 285 274 262 231 219 241 230 222 219 225 228 229 225 224 222 220 217 215 214 216
278 278 254 231 252 264 172 205 212 224 246 246 235 202 163 112 20 88 81 178 270 300 219 234 22 115 161 163 177 162 302 328 340 351 339 355 9 9 18 27 31 30 22 10 4 1 355 347 346 354 1 3 5 2 358 353 351 353 351 350 346 339 338 330 318 288 272 267 254 242 220 219 240 241 232 222 234 233 232 226 224 222 218 215 217 217
240 254 261 262 254 281 128 205 189 237 246 260 56 80 108 183 207 204 124 93 122 256 7 12 97 131 153 180 212 359 298 355 4 311 301 329 353 18 27 36 17 5 356 350 343 343 344 338 338 340 349 0 359 351 350 354 350 346 346 350 345 343 336 322 310 288 278 266 256 248 236 231 231 241 246 241 234 237 244 243 230 231 229 227 221 220
259 226 250 234 252 258 155 174 220 238 253 86 124 101 142 117 106 104 112 105 98 90 89 102 106 141 165 286 278 262 132 166 221 310 334 334 282 302 357 71 8 356 338 334 339 341 341 337 339 342 345 350 349 343 341 349 352 342 342 347 349 344 334 327 315 303 289 274 272 264 249 231 230 245 254 257 267 268 256 248 236 231 230 230 226 222
244 234 224 232 241 249 215 207 237 281 91 127 100 95 85 123 116 132 112 103 95 69 68 99 84 101 191 214 238 169 217 225 209 213 333 344 358 347 348 355 9 355 349 341 322 331 334 332 332 334 337 336 334 334 332 340 346 343 339 336 343 340 337 329 321 310 298 290 272 265 260 248 235 209 209 213 214 229 229 239 243 232 230 230 230 227
242 259 241 230 178 247 238 227 230 111 186 145 169 171 204 176 191 228 272 133 116 144 25 97 118 118 137 119 115 198 213 218 229 153 153 27 359 352 347 345 349 340 333 325 330 334 319 317 318 320 318 316 317 319 326 333 339 339 335 334 339 331 331 330 325 321 311 301 295 289 282 272 251 246 219 194 219 232 239 237 243 251 236 235 239 232
200 243 203 252 196 237 260 246 221 213 250 165 90 96 45 22 1 347 265 142 158 122 66 87 95 94 92 95 77 100 203 235 237 124 54 11 351 346 340 338 334 331 331 332 324 316 320 316 316 315 315 309 306 306 315 321 327 329 329 333 331 329 325 328 327 323 316 309 301 298 297 292 295 286 280 268 224 223 234 238 230 245 241 229 229 235
167 216 221 242 221 213 238 261 248 259 73 67 109 100 67 8 269 228 246 212 117 111 100 347 93 64 45 21 10 324 274 264 263 67 50 2 341 336 332 325 324 326 325 322 321 319 323 330 323 313 300 297 300 314 316 315 317 317 321 324 326 322 319 324 327 323 320 316 311 309 306 307 303 290 280 263 266 266 263 247 237 233 239 258 251 242
176 209 228 223 254 232 260 243 271 4 87 81 76 40 23 353 199 218 252 221 131 151 108 82 33 31 24 10 332 305 335 328 345 357 350 338 333 331 322 325 323 324 321 322 320 338 328 311 301 300 311 314 317 316 314 315 312 312 315 317 319 315 316 323 319 314 311 310 309 308 311 306 311 300 290 286 282 270 252 252 247 238 238 237 246 243
170 216 212 258 264 143 203 265 261 129 83 50 35 12 35 200 232 238 272 75 160 123 122 42 36 16 6 337 347 330 28 347 326 322 321 324 323 321 321 315 318 322 322 322 333 335 313 318 317 318 312 311 315 313 311 313 310 309 311 312 311 309 314 319 312 306 306 306 307 307 307 304 306 310 309 299 293 289 279 267 263 243 233 231 235 242
202 274 227 257 253 270 304 267 296 64 50 349 4 5 14 230 232 292 81 128 128 132 93 22 28 28 333 322 327 331 333 326 317 314 311 320 321 313 312 318 323 323 318 322 320 310 315 313 315 309 307 312 311 310 308 305 303 304 304 303 304 311 313 311 308 302 303 303 302 303 305 307 308 309 302 297 291 285 278 270 263 262 259 246 244 240
18 291 291 291 348 265 235 266 262 250 82 335 6 186 31 279 68 106 123 103 79 71 86 102 341 42 326 315 317 311 307 313 314 312 317 316 314 315 319 322 323 321 322 318 312 318 317 313 312 311 308 307 307 306 303 302 298 297 297 293 298 307 307 308 302 301 301 300 298 297 300 303 304 303 304 300 296 286 281 278 263 253 257 256 247 241
33 276 293 91 15 306 274 278 17 47 39 26 341 52 65 58 66 66 171 119 64 60 38 270 124 342 322 315 317 315 313 307 306 318 314 311 312 314 314 318 317 316 315 315 317 317 319 309 306 306 301 299 296 295 297 297 295 295 293 292 299 300 302 298 298 298 298 297 295 296 296 302 301 298 301 304 298 290 286 280 269 255 248 255 260 274
39 8 359 346 32 331 19 51 99 71 58 60 71 91 84 73 64 52 51 46 30 83 353 317 18 328 1 322 310 310 306 321 322 315 314 315 312 311 315 316 313 312 310 311 312 314 309 306 305 299 294 292 291 292 291 290 290 291 289 293 298 298 296 296 295 293 292 294 295 295 295 295 290 289 300 301 295 289 286 284 280 263 251 251 251 245
94 23 315 282 96 112 69 49 119 113 79 82 76 65 81 87 62 25 16 38 52 8 354 345 338 339 325 329 316 321 322 326 319 318 319 318 315 313 312 310 309 309 307 307 307 310 307 299 296 294 292 292 294 296 295 292 290 289 291 295 294 292 291 291 291 289 289 290 291 292 294 291 291 279 272 288 289 286 288 291 289 278 256 256 256 244
73 305 272 283 97 243 141 141 145 123 126 74 69 65 56 51 66 35 50 24 24 357 342 343 332 321 321 314 318 324 320 321 318 320 320 313 313 315 315 312 311 309 310 308 308 307 303 304 301 300 300 300 303 302 301 299 296 292 292 292 292 289 288 288 285 283 282 282 286 288 290 289 284 286 267 261 273 279 278 276 285 287 279 258 252 253
143 356 260 34 230 290 64 126 91 98 105 74 360 51 82 73 57 61 25 35 18 15 323 341 315 315 321 314 333 319 317 314 316 318 314 315 315 315 312 311 311 311 309 308 306 307 305 304 303 301 303 302 302 301 299 296 294 294 295 296 296 296 293 285 279 280 282 283 283 282 283 284 284 278 270 250 245 268 280 276 276 279 279 278 260 260
16 263 313 335 291 89 155 141 155 222 202 160 109 55 26 18 360 360 359 332 337 333 339 322 331 321 320 322 311 307 303 309 311 313 311 310 310 310 310 310 308 304 305 305 307 305 300 301 301 301 300 301 301 301 300 298 297 297 297 297 297 298 294 292 286 279 277 277 275 274 275 276 279 275 271 266 255 249 256 270 276 279 283 271 273 261
253 246 46 252 239 249 32 54 293 266 200 118 61 42 22 4 331 330 330 327 332 327 325 318 315 317 314 316 315 310 307 306 305 305 303 303 303 308 308 305 304 303 304 305 304 304 303 304 303 303 302 299 299 299 299 299 298 298 299 300 299 298 294 292 289 286 279 274 271 270 270 271 273 277 274 269 268 265 259 238 225 246 261 282 267 263
349 36 308 303 330 27 52 46 33 328 9 36 7 6 354 341 334 332 337 328 326 321 324 316 316 320 320 315 315 309 310 310 310 308 304 305 309 308 307 307 307 308 309 309 308 307 309 309 307 303 301 300 299 296 294 294 295 297 298 300 298 296 293 291 287 283 279 274 271 270 273 275 275 274 273 268 265 267 268 273 225 211 224 233 255 265